This is the latest recevied weather packets stored in our database for station/object K1AWR. If no packets are shown the sender has not sent any weather packets the latest 10 day(s).
| Time | Temp. | Humidity | Pressure | Rain* | Wind** | Luminosity | Snow |
|---|---|---|---|---|---|---|---|
| 1777902297 | 16.67° C | 39% | 1011.9 hPa | 0 mm | - | 366 W/m² | - |
| 1777901995 | 16.67° C | 39% | 1012 hPa | 0 mm | - | 484 W/m² | - |
| 1777901693 | 16.67° C | 39% | 1012.1 hPa | 0 mm | - | 458 W/m² | - |
| 1777901390 | 16.67° C | 38% | 1011.9 hPa | 0 mm | - | 372 W/m² | - |
| 1777901088 | 16.67° C | 38% | 1012.2 hPa | 0 mm | - | 289 W/m² | - |
| 1777900785 | 16.67° C | 40% | 1012.1 hPa | 0 mm | - | 411 W/m² | - |
| 1777900482 | 16.67° C | 38% | 1012.3 hPa | 0 mm | - | 411 W/m² | - |
| 1777900179 | 16.11° C | 42% | 1012.3 hPa | 0 mm | - | 394 W/m² | - |
| 1777899875 | 16.67° C | 41% | 1012.4 hPa | 0 mm | - | 381 W/m² | - |
| 1777899572 | 16.11° C | 41% | 1012.3 hPa | 0 mm | - | 371 W/m² | - |
| 1777899270 | 16.11° C | 45% | 1012.3 hPa | 0 mm | - | 343 W/m² | - |
| 1777898967 | 16.11° C | 45% | 1012.4 hPa | 0 mm | - | 343 W/m² | - |
| 1777898664 | 15° C | 41% | 1012.2 hPa | 0 mm | - | 330 W/m² | - |
| 1777898361 | 15° C | 42% | 1012.3 hPa | 0 mm | - | 197 W/m² | - |
| 1777898059 | 14.44° C | 44% | 1012.5 hPa | 0 mm | - | 298 W/m² | - |
| 1777897755 | 14.44° C | 43% | 1012.4 hPa | 0 mm | - | 263 W/m² | - |
| 1777897451 | 14.44° C | 43% | 1012.5 hPa | 0 mm | - | 263 W/m² | - |
| 1777897148 | 13.89° C | 45% | 1012.5 hPa | 0 mm | - | 241 W/m² | - |
| 1777896844 | 13.89° C | 46% | 1012.6 hPa | 0 mm | - | 236 W/m² | - |
| 1777896541 | 12.78° C | 49% | 1012.6 hPa | 0 mm | - | 113 W/m² | - |
| 1777896238 | 12.22° C | 51% | 1012.8 hPa | 0 mm | - | 59 W/m² | - |
| 1777895936 | 12.22° C | 48% | 1012.7 hPa | 0 mm | - | 56 W/m² | - |
| 1777895633 | 11.67° C | 49% | 1012.9 hPa | 0 mm | - | 57 W/m² | - |
| 1777895331 | 11.67° C | 52% | 1012.7 hPa | 0 mm | - | 60 W/m² | - |
| 1777895029 | 11.11° C | 50% | 1012.8 hPa | 0 mm | - | 88 W/m² | - |
* Rain latest hour (hover to see other rain measurements)
** Current wind speed in m/s (hover to see current wind gust speed)